User: anonymous
Location: Unspecified
(0.0000°N, 0.0000°E)
Time: 11:47:44
(UTC+02:00)
Language:

CZ-4 R/B - Orbit

View from above orbital plane
View from above orbital plane
View from above satellite
View from above satellite

Ground track
Ground track

The orbit data is extracted from the following two-line orbital elements,

1 28059U 03049C   14272.67248641  .00000291  00000-0  82923-4 0  1772
2 28059 098.6872 115.0111 0050750 026.7582 014.7223 14.52159865579751
Epoch (UTC): 29 September 2014 16:08:22
Eccentricity: 0.0050750
inclination: 98.6872°
perigee height: 682 km
apogee height: 754 km
right ascension of ascending node: 115.0111°
argument of perigee: 26.7582°
revolutions per day: 14.52159865
mean anomaly at epoch: 14.7223°
orbit number at epoch: 57975

The dashed part of the orbit path shows where the satellite is in the earth's shadow,  

DLR